| time (UTC) | temp C | wind direction | speed KPH | gust KPH | rain 1hr cm | rain 24hr cm | rain mn cm | humidity % | barometer mb |
| 20260506204557 | 22 | 167 | 3.2 | 9.7 | 0.00 | 0.00 | 0.00 | 40 | 997.2 |
| 20260506203055 | 22 | 170 | 1.6 | 8.0 | 0.00 | 0.00 | 0.00 | 39 | 997.4 |
| 20260506201554 | 22 | 238 | 0.0 | 3.2 | 0.00 | 0.00 | 0.00 | 40 | 997.5 |
| 20260506200050 | 22 | 257 | 0.0 | 4.8 | 0.00 | 0.00 | 0.00 | 39 | 997.7 |
| 20260506194548 | 21 | 161 | 1.6 | 8.0 | 0.00 | 0.00 | 0.00 | 40 | 997.9 |
| 20260506193042 | 20 | 166 | 1.6 | 8.0 | 0.00 | 0.00 | 0.00 | 39 | 998.2 |
| 20260506191539 | 20 | 94 | 0.0 | 6.4 | 0.00 | 0.00 | 0.00 | 37 | 998.5 |
| 20260506190035 | 20 | 183 | 1.6 | 8.0 | 0.00 | 0.00 | 0.00 | 39 | 998.8 |
| 20260506184533 | 19 | 295 | 0.0 | 1.6 | 0.00 | 0.00 | 0.00 | 40 | 998.9 |
| 20260506183033 | 18 | 161 | 0.0 | 6.4 | 0.00 | 0.00 | 0.00 | 41 | 999.1 |
| 20260506181526 | 18 | 225 | 0.0 | 1.6 | 0.00 | 0.00 | 0.00 | 41 | 999.1 |
| 20260506180023 | 17 | 169 | 0.0 | 1.6 | 0.00 | 0.00 | 0.00 | 39 | 999.2 |
| 20260506174520 | 17 | 222 | 0.0 | 1.6 | 0.00 | 0.00 | 0.00 | 41 | 999.3 |
| 20260506173022 | 16 | 236 | 0.0 | 1.6 | 0.00 | 0.00 | 0.00 | 42 | 999.5 |
| 20260506171515 | 16 | 240 | 1.6 | 4.8 | 0.00 | 0.00 | 0.00 | 42 | 999.7 |
| 20260506170012 | 15 | 106 | 1.6 | 4.8 | 0.00 | 0.00 | 0.00 | 46 | 999.9 |
| 20260506164508 | 15 | 224 | 0.0 | 4.8 | 0.00 | 0.00 | 0.00 | 48 | 1000.1 |
| 20260506163005 | 14 | 224 | 0.0 | 1.6 | 0.00 | 0.00 | 0.00 | 48 | 1000.1 |
| 20260506161503 | 13 | 233 | 0.0 | 0.0 | 0.00 | 0.00 | 0.00 | 50 | 1000.2 |
| 20260506160111 | 13 | 224 | 0.0 | 1.6 | 0.00 | 0.00 | 0.00 | 51 | 1000.3 |
| 20260506154556 | 12 | 252 | 0.0 | 0.0 | 0.00 | 0.00 | 0.00 | 52 | 1000.4 |
| 20260506153051 | 11 | 248 | 0.0 | 0.0 | 0.00 | 0.00 | 0.00 | 61 | 1000.4 |
| 20260506151550 | 10 | 49 | 0.0 | 0.0 | 0.00 | 0.00 | 0.00 | 61 | 1000.5 |
| 20260506150050 | 8 | 46 | 0.0 | 0.0 | 0.00 | 0.00 | 0.00 | 67 | 1000.6 |
| 20260506144548 | 8 | 46 | 0.0 | 0.0 | 0.00 | 0.00 | 0.00 | 72 | 1000.6 |
| 20260506143048 | 7 | 47 | 0.0 | 0.0 | 0.00 | 0.00 | 0.00 | 75 | 1000.5 |
| 20260506141605 | 7 | 46 | 0.0 | 0.0 | 0.00 | 0.00 | 0.00 | 78 | 1000.5 |
| 20260506140046 | 6 | 46 | 0.0 | 0.0 | 0.00 | 0.00 | 0.00 | 79 | 1000.5 |
| 20260506134545 | 5 | 47 | 0.0 | 0.0 | 0.00 | 0.00 | 0.00 | 82 | 1000.4 |
| 20260506133043 | 3 | 44 | 0.0 | 0.0 | 0.00 | 0.00 | 0.00 | 84 | 1000.4 |
| 20260506131541 | 3 | 44 | 0.0 | 0.0 | 0.00 | 0.00 | 0.00 | 84 | 1000.3 |
| 20260506130040 | 3 | 41 | 0.0 | 0.0 | 0.00 | 0.00 | 0.00 | 83 | 1000.3 |
| 20260506124540 | 3 | 40 | 0.0 | 0.0 | 0.00 | 0.00 | 0.00 | 83 | 1000.0 |
| 20260506123041 | 3 | 20 | 0.0 | 0.0 | 0.00 | 0.00 | 0.00 | 82 | 999.9 |
| 20260506121533 | 3 | 44 | 0.0 | 0.0 | 0.00 | 0.00 | 0.00 | 82 | 999.7 |
| 20260506120052 | 3 | 38 | 0.0 | 0.0 | 0.00 | 0.00 | 0.00 | 82 | 999.7 |
| 20260506114530 | 3 | 41 | 0.0 | 0.0 | 0.00 | 0.00 | 0.00 | 81 | 999.7 |
| 20260506113029 | 3 | 46 | 0.0 | 0.0 | 0.00 | 0.00 | 0.00 | 81 | 999.8 |
| 20260506111508 | 3 | 42 | 0.0 | 0.0 | 0.00 | 0.00 | 0.00 | 81 | 999.7 |
| 20260506110005 | 3 | 46 | 0.0 | 0.0 | 0.00 | 0.00 | 0.00 | 80 | 999.7 |
| 20260506104502 | 4 | 37 | 0.0 | 0.0 | 0.00 | 0.00 | 0.00 | 78 | 999.6 |
| 20260506103004 | 4 | 16 | 0.0 | 0.0 | 0.00 | 0.00 | 0.00 | 78 | 999.5 |
| 20260506101558 | 4 | 44 | 0.0 | 0.0 | 0.00 | 0.00 | 0.00 | 78 | 999.6 |
| 20260506100056 | 5 | 54 | 0.0 | 0.0 | 0.00 | 0.00 | 0.00 | 76 | 999.4 |
| 20260506094553 | 5 | 44 | 0.0 | 0.0 | 0.00 | 0.00 | 0.00 | 74 | 999.4 |
| 20260506093053 | 5 | 34 | 0.0 | 0.0 | 0.00 | 0.00 | 0.00 | 74 | 999.3 |
| 20260506091550 | 5 | 39 | 0.0 | 0.0 | 0.00 | 0.00 | 0.00 | 74 | 999.3 |
| 20260506090047 | 5 | 40 | 0.0 | 0.0 | 0.00 | 0.00 | 0.00 | 71 | 999.2 |
| 20260506084544 | 6 | 50 | 0.0 | 0.0 | 0.00 | 0.00 | 0.00 | 71 | 999.0 |
| 20260506083045 | 6 | 44 | 3.2 | 4.8 | 0.00 | 0.00 | 0.00 | 69 | 999.0 |
| 20260506081538 | 7 | 43 | 1.6 | 4.8 | 0.00 | 0.00 | 0.00 | 65 | 998.8 |
| 20260506073031 | 10 | 253 | 1.6 | 4.8 | 0.00 | 0.00 | 0.00 | 50 | 998.4 |
| 20260506071526 | 7 | 338 | 1.6 | 3.2 | 0.00 | 0.00 | 0.00 | 64 | 998.3 |
| 20260506061524 | 8 | 41 | 0.0 | 6.4 | 0.00 | 0.00 | 0.00 | 65 | 997.9 |
| 20260506044517 | 8 | 43 | 0.0 | 1.6 | 0.00 | 0.00 | 0.00 | 72 | 997.0 |
| 20260506043013 | 8 | 34 | 0.0 | 0.0 | 0.00 | 0.00 | 0.00 | 69 | 996.9 |
| 20260506041506 | 9 | 44 | 4.8 | 8.0 | 0.00 | 0.00 | 0.00 | 67 | 996.7 |
| 20260506040006 | 9 | 44 | 4.8 | 6.4 | 0.00 | 0.00 | 0.00 | 67 | 996.6 |
| 20260506034503 | 10 | 46 | 4.8 | 6.4 | 0.00 | 0.00 | 0.00 | 67 | 996.5 |
| 20260506033108 | 10 | 46 | 3.2 | 6.4 | 0.00 | 0.00 | 0.00 | 61 | 996.3 |
| 20260506031603 | 11 | 46 | 3.2 | 4.8 | 0.00 | 0.00 | 0.00 | 61 | 996.1 |
| 20260506030113 | 11 | 42 | 3.2 | 4.8 | 0.00 | 0.00 | 0.00 | 60 | 995.9 |
| 20260506024557 | 12 | 41 | 3.2 | 4.8 | 0.00 | 0.00 | 0.00 | 61 | 995.9 |
| 20260506023056 | 13 | 27 | 0.0 | 0.0 | 0.00 | 0.00 | 0.00 | 55 | 995.8 |
| 20260506021558 | 15 | 360 | 0.0 | 1.6 | 0.00 | 0.00 | 0.00 | 47 | 995.7 |
| 20260506020053 | 17 | 290 | 0.0 | 3.2 | 0.00 | 0.00 | 0.00 | 38 | 995.6 |
| 20260506014600 | 19 | 290 | 0.0 | 4.8 | 0.00 | 0.00 | 0.00 | 35 | 995.6 |
| 20260506013053 | 20 | 298 | 0.0 | 1.6 | 0.00 | 0.00 | 0.00 | 30 | 995.6 |
| 20260506011558 | 19 | 259 | 0.0 | 1.6 | 0.00 | 0.00 | 0.00 | 30 | 995.7 |
| 20260506010055 | 19 | 339 | 1.6 | 6.4 | 0.00 | 0.00 | 0.00 | 28 | 995.8 |
| 20260506004622 | 20 | 264 | 0.0 | 1.6 | 0.00 | 0.00 | 0.00 | 27 | 995.8 |
| 20260506003049 | 20 | 57 | 1.6 | 8.0 | 0.00 | 0.00 | 0.00 | 28 | 995.9 |
| 20260506001548 | 20 | 51 | 6.4 | 9.7 | 0.00 | 0.00 | 0.00 | 27 | 996.1 |
| 20260506000047 | 20 | 352 | 0.0 | 4.8 | 0.00 | 0.00 | 0.00 | 26 | 996.2 |
| 20260505234609 | 21 | 250 | 0.0 | 3.2 | 0.00 | 0.00 | 0.00 | 28 | 996.4 |
| 20260505233045 | 20 | 10 | 6.4 | 12.9 | 0.00 | 0.00 | 0.00 | 25 | 996.5 |
| 20260505231549 | 20 | 309 | 3.2 | 11.3 | 0.00 | 0.00 | 0.00 | 26 | 996.7 |
| 20260505230047 | 21 | 49 | 0.0 | 3.2 | 0.00 | 0.00 | 0.00 | 25 | 996.9 |
| 20260505224543 | 20 | 41 | 4.8 | 11.3 | 0.00 | 0.00 | 0.00 | 26 | 997.0 |
| 20260505223142 | 20 | 332 | 1.6 | 6.4 | 0.00 | 0.00 | 0.00 | 28 | 997.1 |
| 20260505221556 | 20 | 256 | 3.2 | 9.7 | 0.00 | 0.00 | 0.00 | 28 | 997.4 |
| 20260505220040 | 21 | 75 | 1.6 | 9.7 | 0.00 | 0.00 | 0.00 | 25 | 997.4 |
| 20260505214542 | 20 | 65 | 1.6 | 11.3 | 0.00 | 0.00 | 0.00 | 27 | 997.6 |
| 20260505213034 | 20 | 67 | 4.8 | 11.3 | 0.00 | 0.00 | 0.00 | 26 | 997.8 |
| 20260505211532 | 19 | 43 | 9.7 | 19.3 | 0.00 | 0.00 | 0.00 | 27 | 998.0 |
| 20260505210031 | 19 | 329 | 6.4 | 20.9 | 0.00 | 0.00 | 0.00 | 29 | 998.1 |